TimeEST,TemperatureF,Dew PointF,Humidity,Sea Level PressureIn,VisibilityMPH,Wind Direction,Wind SpeedMPH,Gust SpeedMPH,PrecipitationIn,Events,Conditions,WindDirDegrees,DateUTC
12:15 AM,46.4,44.6,93,30.41,1.0,Calm,Calm,-,N/A,,Unknown,0,2013-01-10 05:15:00
12:35 AM,44.6,44.6,100,30.40,5.0,Calm,Calm,-,N/A,,Clear,0,2013-01-10 05:35:00
12:55 AM,46.4,46.4,100,30.40,4.0,Calm,Calm,-,N/A,,Clear,0,2013-01-10 05:55:00
1:15 AM,44.6,44.6,100,30.41,10.0,Calm,Calm,-,N/A,,Clear,0,2013-01-10 06:15:00
1:35 AM,46.4,46.4,100,30.42,10.0,WSW,3.5,-,N/A,,Clear,250,2013-01-10 06:35:00
1:55 AM,46.4,46.4,100,30.42,10.0,Calm,Calm,-,N/A,,Clear,0,2013-01-10 06:55:00
3:15 AM,48.2,46.4,93,30.42,7.0,Calm,Calm,-,N/A,,Clear,0,2013-01-10 08:15:00
3:35 AM,46.4,46.4,100,30.43,10.0,Calm,Calm,-,N/A,,Clear,0,2013-01-10 08:35:00
3:55 AM,46.4,46.4,100,30.43,10.0,Calm,Calm,-,N/A,,Clear,0,2013-01-10 08:55:00
4:15 AM,48.2,46.4,93,30.42,10.0,Calm,Calm,-,N/A,,Clear,0,2013-01-10 09:15:00
4:35 AM,46.4,44.6,93,30.42,2.5,Calm,Calm,-,N/A,,Clear,0,2013-01-10 09:35:00
4:55 AM,46.4,44.6,93,30.42,2.5,Calm,Calm,-,N/A,,Clear,0,2013-01-10 09:55:00
5:15 AM,46.4,46.4,100,30.42,5.0,Calm,Calm,-,N/A,,Clear,0,2013-01-10 10:15:00
5:35 AM,44.6,44.6,100,30.43,2.5,Calm,Calm,-,N/A,,Clear,0,2013-01-10 10:35:00
5:55 AM,44.6,44.6,100,30.44,4.0,Calm,Calm,-,N/A,,Clear,0,2013-01-10 10:55:00
6:15 AM,44.6,44.6,100,30.45,4.0,Calm,Calm,-,N/A,,Clear,0,2013-01-10 11:15:00
6:35 AM,44.6,44.6,100,30.47,3.0,Calm,Calm,-,N/A,,Clear,0,2013-01-10 11:35:00
6:55 AM,44.6,44.6,100,30.47,1.2,Calm,Calm,-,N/A,,Unknown,0,2013-01-10 11:55:00
7:35 AM,44.6,44.6,100,30.50,4.0,NNE,3.5,-,N/A,,Clear,20,2013-01-10 12:35:00
7:55 AM,44.6,44.6,100,30.51,5.0,Calm,Calm,-,N/A,,Clear,0,2013-01-10 12:55:00
8:55 AM,51.8,50.0,94,30.52,10.0,ENE,3.5,-,N/A,,Clear,60,2013-01-10 13:55:00
9:35 AM,53.6,46.4,77,30.53,10.0,East,9.2,-,N/A,,Clear,90,2013-01-10 14:35:00
9:55 AM,55.4,46.4,72,30.53,10.0,East,6.9,-,N/A,,Clear,100,2013-01-10 14:55:00
10:15 AM,57.2,42.8,59,30.53,10.0,East,10.4,-,N/A,,Clear,100,2013-01-10 15:15:00
10:55 AM,59.0,42.8,55,30.52,10.0,ESE,6.9,-,N/A,,Clear,120,2013-01-10 15:55:00
11:15 AM,60.8,39.2,45,30.51,10.0,NE,11.5,-,N/A,,Clear,50,2013-01-10 16:15:00
11:35 AM,60.8,39.2,45,30.50,10.0,East,8.1,-,N/A,,Clear,90,2013-01-10 16:35:00
11:55 AM,60.8,37.4,42,30.49,10.0,East,10.4,-,N/A,,Clear,80,2013-01-10 16:55:00
12:15 PM,60.8,37.4,42,30.49,10.0,ENE,4.6,-,N/A,,Clear,70,2013-01-10 17:15:00
12:35 PM,62.6,37.4,39,30.47,10.0,East,10.4,-,N/A,,Clear,90,2013-01-10 17:35:00
1:15 PM,62.6,35.6,37,30.47,10.0,East,6.9,-,N/A,,Clear,90,2013-01-10 18:15:00
1:35 PM,62.6,35.6,37,30.46,10.0,East,5.8,-,N/A,,Clear,100,2013-01-10 18:35:00
1:55 PM,62.6,35.6,37,30.47,10.0,ENE,11.5,-,N/A,,Clear,60,2013-01-10 18:55:00
2:15 PM,62.6,35.6,37,30.47,10.0,ENE,9.2,-,N/A,,Clear,70,2013-01-10 19:15:00
2:35 PM,62.6,33.8,34,30.46,10.0,East,10.4,-,N/A,,Clear,80,2013-01-10 19:35:00
2:55 PM,62.6,33.8,34,30.47,10.0,ENE,9.2,-,N/A,,Clear,60,2013-01-10 19:55:00
3:15 PM,62.6,32.0,32,30.48,10.0,ENE,6.9,-,N/A,,Clear,70,2013-01-10 20:15:00
3:35 PM,60.8,32.0,34,30.48,10.0,ESE,6.9,-,N/A,,Clear,110,2013-01-10 20:35:00
3:55 PM,59.0,32.0,36,30.49,10.0,ESE,5.8,-,N/A,,Clear,110,2013-01-10 20:55:00
4:15 PM,59.0,32.0,36,30.48,10.0,East,5.8,-,N/A,,Clear,100,2013-01-10 21:15:00
4:35 PM,57.2,32.0,38,30.48,10.0,East,4.6,-,N/A,,Clear,100,2013-01-10 21:35:00
4:55 PM,55.4,33.8,44,30.48,10.0,ESE,5.8,-,N/A,,Clear,110,2013-01-10 21:55:00
5:15 PM,55.4,35.6,47,30.48,10.0,ESE,4.6,-,N/A,,Clear,120,2013-01-10 22:15:00
5:35 PM,53.6,33.8,47,30.48,10.0,ESE,3.5,-,N/A,,Clear,110,2013-01-10 22:35:00
5:55 PM,53.6,33.8,47,30.49,10.0,ESE,5.8,-,N/A,,Clear,120,2013-01-10 22:55:00
6:15 PM,51.8,33.8,50,30.49,10.0,ESE,5.8,-,N/A,,Clear,110,2013-01-10 23:15:00
6:35 PM,51.8,33.8,50,30.49,10.0,ESE,4.6,-,N/A,,Clear,110,2013-01-10 23:35:00
6:55 PM,50.0,33.8,54,30.49,10.0,ESE,5.8,-,N/A,,Clear,110,2013-01-10 23:55:00
7:15 PM,50.0,33.8,54,30.49,10.0,East,4.6,-,N/A,,Clear,100,2013-01-11 00:15:00
7:35 PM,46.4,33.8,62,30.49,10.0,East,4.6,-,N/A,,Clear,100,2013-01-11 00:35:00
7:55 PM,46.4,33.8,62,30.49,10.0,East,4.6,-,N/A,,Clear,90,2013-01-11 00:55:00
8:15 PM,46.4,33.8,62,30.50,10.0,ESE,3.5,-,N/A,,Clear,110,2013-01-11 01:15:00
8:35 PM,44.6,33.8,66,30.49,10.0,East,5.8,-,N/A,,Clear,90,2013-01-11 01:35:00
8:55 PM,44.6,33.8,66,30.49,10.0,East,5.8,-,N/A,,Clear,100,2013-01-11 01:55:00
9:15 PM,44.6,33.8,66,30.49,10.0,East,4.6,-,N/A,,Clear,100,2013-01-11 02:15:00
9:35 PM,42.8,33.8,70,30.49,10.0,East,4.6,-,N/A,,Clear,80,2013-01-11 02:35:00
9:55 PM,42.8,33.8,70,30.49,10.0,East,3.5,-,N/A,,Clear,80,2013-01-11 02:55:00
10:15 PM,42.8,32.0,66,30.49,10.0,Calm,Calm,-,N/A,,Clear,0,2013-01-11 03:15:00
10:35 PM,42.8,32.0,66,30.49,10.0,Calm,Calm,-,N/A,,Clear,0,2013-01-11 03:35:00
10:55 PM,42.8,32.0,66,30.48,10.0,ENE,3.5,-,N/A,,Clear,70,2013-01-11 03:55:00
11:15 PM,42.8,32.0,66,30.47,10.0,East,3.5,-,N/A,,Clear,80,2013-01-11 04:15:00
11:35 PM,42.8,32.0,66,30.48,10.0,Calm,Calm,-,N/A,,Clear,0,2013-01-11 04:35:00